[[{"header":{"parameterUnit":"m.s-1","parameterCategory":1,"la1":30.2991,"la2":30.254,"lo1":-89.0895,"lo2":-89.0444,"dy":0.0017,"dx":0.0017,"nx":28,"ny":28,"refTime":"2024-06-15T21:00:00:Z","depth":0,"parameterNumber":2,"parameterNumberName":"U-component_of_WINDS"},"data":[0,0,0,0,0,0,0,0,0,0,0,0,0,0,0,0,0,0,0,0,0,0,0,0,0,0,0,0,0,0,0,0,0,0,0,0,0,0,0,0,0,0,0,0,0,0,0,0,0,0,0,0,0,0,0,0,0,0,-6.7784,-6.7784,0,-6.7806,-6.7806,-6.7807,-6.7718,-6.7715,-6.7713,-6.771,-6.773,-6.7733,-6.7735,0,0,0,0,0,0,0,0,0,0,0,0,0,-6.7664,-6.7666,-6.7784,-6.7784,-6.7785,-6.7806,-6.7806,-6.7807,-6.7718,-6.7715,-6.7712,-6.7709,-6.7729,-6.7732,-6.7736,0,0,0,0,0,0,0,0,0,0,0,0,0,-6.7704,-6.7667,-6.7784,-6.7743,-6.774,-6.7806,-6.7806,-6.7807,-6.7719,-6.7715,-6.7711,-6.7707,-6.7728,-6.7732,-6.7736,-6.7842,0,0,-6.775,-6.7752,0,0,0,0,0,0,0,0,-6.7702,-6.7708,-6.7749,-6.7746,-6.7742,-6.7755,-6.7771,-6.7819,-6.772,-6.7727,-6.771,-6.7705,-6.7741,-6.7744,-6.7757,-6.7843,-6.7844,-6.775,-6.7753,-6.7755,-6.7756,0,0,0,0,0,0,0,-6.7699,-6.7707,-6.7793,-6.775,-6.7746,-6.7723,-6.7725,-6.778,-6.7755,-6.7726,-6.7719,-6.7723,-6.7739,-6.7753,-6.7757,-6.7844,-6.775,-6.7754,-6.7757,-6.7758,-6.8018,-6.8022,0,0,0,0,0,0,-6.7702,-6.7705,-6.7792,-6.7793,-6.7712,-6.7729,-6.773,-6.7755,-6.7755,-6.7751,-6.7727,-6.7719,-6.7747,-6.7752,-6.7757,-6.7879,-6.7755,-6.7759,-6.7761,-6.8014,-6.8019,-6.8024,0,0,0,0,0,0,-6.77,-6.7711,-6.7791,-6.7748,-6.7756,-6.7735,-6.7764,-6.7758,-6.7771,-6.7755,-6.775,-6.7746,-6.7744,-6.7751,-6.7822,-6.7879,-6.7761,-6.7765,-6.8009,-6.8015,-6.8021,-6.8126,0,0,0,0,0,0,-6.7697,-6.771,-6.775,-6.7749,-6.7759,-6.7856,-6.7767,-6.7761,-6.778,-6.777,-6.7772,-6.7768,-6.7742,-6.7816,-6.7826,-6.7883,-6.7768,-6.8004,-6.8012,-6.8019,-6.8117,-6.8135,-6.815,0,0,0,0,0,-6.7693,-6.7778,-6.7753,-6.7764,-6.7809,-6.7859,-6.7865,-6.7833,-6.7785,-6.7824,-6.7815,-6.7768,-6.7872,-6.7824,-6.7835,-6.7893,-6.8,-6.8009,-6.8019,-6.811,-6.8131,-6.815,0,0,0,0,0,0,-6.7784,-6.7777,-6.7749,-6.7837,-6.785,-6.7844,-6.7893,-6.7857,-6.7883,-6.7872,-6.7832,-6.7833,-6.7911,-6.791,-6.7856,-6.7996,-6.7927,-6.794,-6.7993,-6.8013,-6.803,-6.8026,-6.7772,0,0,0,0,0,-6.7815,-6.7858,-6.7849,-6.7928,-6.7936,-6.7914,-6.7935,-6.791,-6.7921,-6.7925,-6.792,-6.7932,-6.7967,-6.7991,-6.8023,-6.8119,-6.8117,-6.8165,-6.8181,-6.8195,-6.8205,-6.8254,-6.8275,-6.8055,-6.8055,-6.8055,0,0,-6.7878,-6.788,-6.7909,-6.7946,-6.7953,-6.7997,-6.7919,-6.7968,-6.8,-6.7932,-6.7998,-6.7996,-6.8007,-6.8091,-6.8127,-6.8092,-6.8266,-6.8207,-6.8218,-6.822,-6.8266,-6.8287,-6.8305,-6.8061,-6.806,-6.8059,0,0,-6.8015,-6.8022,-6.8087,-6.8097,-6.8109,-6.8094,-6.8111,-6.8112,-6.8108,-6.8174,-6.8124,-6.8163,-6.8224,-6.8234,-6.8246,-6.8392,-6.8349,-6.8404,-6.8488,-6.8537,-6.8554,-6.8569,-6.8618,-6.8637,-6.8414,-6.8414,-6.8415,0,-6.8091,-6.8156,-6.8125,-6.8178,-6.8196,-6.814,-6.8205,-6.8216,-6.8238,-6.8251,-6.8212,-6.8289,-6.8293,-6.8377,-6.8413,-6.8427,-6.8442,-6.84,-6.8555,-6.8569,-6.8583,-6.8629,-6.8648,-6.8421,-6.842,-6.8419,-6.8419,0,-6.8248,-6.8294,-6.8346,-6.8369,-6.8393,-6.8453,-6.843,-6.8459,-6.8433,-6.8423,-6.8492,-6.8495,-6.8526,-6.8545,-6.852,-6.8627,-6.8604,-6.8562,-6.8491,-6.8611,-6.8653,-6.8671,-6.843,-6.8427,-6.8425,-6.8424,0,0,-6.8436,-6.8446,-6.8465,-6.8475,-6.8487,-6.8521,-6.858,-6.8611,-6.8635,-6.8654,-6.87,-6.8756,-6.8716,-6.8731,-6.8708,-6.8752,-6.8864,-6.8703,-6.8702,-6.8729,-6.8979,-6.9008,-6.9029,-6.8838,-6.8842,-6.8844,-6.8977,0,-6.8568,-6.8666,-6.8642,-6.8739,-6.8781,-6.8731,-6.8781,-6.8793,-6.8787,-6.8821,-6.8814,-6.8852,-6.8799,-6.8808,-6.8849,-6.8841,-6.8912,-6.8832,-6.8878,-6.888,-6.8872,-6.9052,-6.9082,-6.9207,-6.8994,-6.8996,-6.8999,0,-6.8733,-6.8759,-6.8861,-6.8867,-6.8884,-6.8929,-6.8957,-6.8991,-6.9005,-6.8997,-6.9016,-6.8985,-6.9041,-6.8975,-6.9051,-6.8997,-6.9016,-6.9015,-6.9019,-6.9018,-6.8943,-6.9052,-6.9246,-6.9263,-6.9025,-6.9023,-6.9021,0,-6.8856,-6.8918,-6.8987,-6.8998,-6.9007,-6.904,-6.9046,-6.9056,-6.9077,-6.9102,-6.9115,-6.9147,-6.9163,-6.9188,-6.9165,-6.9119,-6.9245,-6.9177,-6.9238,-6.9238,-6.9262,-6.926,-6.9458,-6.9282,-6.9282,-6.9281,-6.9281,0,-6.9003,-6.9066,-6.9042,-6.9084,-6.9154,-6.9127,-6.9197,-6.9196,-6.9207,-6.9247,-6.9207,-6.9245,-6.9216,-6.9252,-6.9236,-6.9301,-6.931,-6.9303,-6.9297,-6.9304,-6.9305,-6.9312,-6.9301,-6.9286,-6.9285,-6.9284,-6.9283,0,-6.915,-6.9137,-6.9208,-6.9213,-6.9216,-6.9267,-6.927,-6.9309,-6.9302,-6.9353,-6.9364,-6.9351,-6.9392,-6.9374,-6.9417,-6.9406,-6.9489,-6.9473,-6.9484,-6.9478,-6.9539,-6.9532,-6.9744,-6.977,-6.9582,-6.9584,-6.9585,0,-6.9241,-6.9289,-6.9301,-6.9325,-6.9334,-6.9375,-6.9397,-6.9374,-6.9398,-6.9419,-6.9455,-6.9493,-6.9521,-6.9589,-6.9583,-6.9616,-6.9599,-6.9671,-6.9603,-6.9608,-6.9595,-6.9591,-6.9595,-6.9683,-6.9685,-6.9687,-6.9688,0,-6.9405,-6.9397,-6.9431,-6.9464,-6.9492,-6.9516,-6.9537,-6.9559,-6.9537,-6.9567,-6.9609,-6.9631,-6.9676,-6.9714,-6.9743,-6.9748,-6.9714,-6.9711,-6.9726,-6.9731,-6.9734,-6.973,-6.9516,-6.9705,-6.9703,-6.9702,-6.9701,-6.97,-6.9524,-6.9564,-6.9579,-6.9618,-6.9632,-6.9653,-6.969,-6.9688,-6.9723,-6.9758,-6.9743,-6.9792,-6.9806,-6.9842,-6.9853,-6.989,-6.9861,-6.9884,-6.9888,-6.9893,-6.99,-6.9733,-6.9895,-6.9895,-6.9895,-6.9894,-6.9894,0,-6.9682,-6.969,-6.9727,-6.9758,-6.979,-6.9759,-6.9781,-6.9809,-6.9852,-6.987,-6.9899,-6.9948,-6.9985,-6.9985,-7.0019,-7.0049,-7.0034,-7.0058,-7.0053,-7.0054,-6.9925,-6.9907,-7.0069,-7.0069,-7.0069,-7.0069,-7.0069,-7.0069,-6.9768,-6.9834,-6.9828,-6.9901,-6.9908,-6.9956,-6.9971,-6.9991,-7.0004,-7.006,-7.0092,-7.0092,-7.0102,-7.0137,-7.017,-7.0168,-7.0181,-7.021,-7.0203,-7.0081,-7.0064,-7.0047,-7.0029,-7.0215,-7.0215,-7.0328,-7.033,-7.033]},{"header":{"parameterUnit":"m.s-1","parameterCategory":1,"la1":30.2991,"la2":30.254,"lo1":-89.0895,"lo2":-89.0444,"dy":0.0017,"dx":0.0017,"nx":28,"ny":28,"refTime":"2024-06-15T21:00:00:Z","depth":0,"parameterNumber":3,"parameterNumberName":"V-component_of_WINDS"},"data":[0,0,0,0,0,0,0,0,0,0,0,0,0,0,0,0,0,0,0,0,0,0,0,0,0,0,0,0,0,0,0,0,0,0,0,0,0,0,0,0,0,0,0,0,0,0,0,0,0,0,0,0,0,0,0,0,0,0,3.2124,3.2124,0,3.2134,3.2134,3.2134,3.2173,3.2174,3.2175,3.2176,3.218,3.2179,3.2178,0,0,0,0,0,0,0,0,0,0,0,0,0,3.2134,3.2134,3.2124,3.2124,3.2124,3.2134,3.2134,3.2134,3.2173,3.2174,3.2175,3.2176,3.218,3.2179,3.2178,0,0,0,0,0,0,0,0,0,0,0,0,0,3.2136,3.2134,3.2124,3.2145,3.2147,3.2134,3.2134,3.2134,3.2173,3.2174,3.2176,3.2177,3.218,3.2179,3.2178,3.2144,0,0,3.2175,3.2174,0,0,0,0,0,0,0,0,3.2135,3.2135,3.2142,3.2144,3.2146,3.2154,3.2139,3.2137,3.2173,3.2163,3.2176,3.2178,3.217,3.2169,3.2168,3.2144,3.2144,3.2175,3.2174,3.2173,3.2173,0,0,0,0,0,0,0,3.2135,3.2135,3.2128,3.2142,3.2144,3.2153,3.2154,3.2139,3.2158,3.2164,3.2167,3.2168,3.2171,3.2169,3.2168,3.2144,3.2175,3.2174,3.2173,3.2172,3.2093,3.2092,0,0,0,0,0,0,3.2133,3.2135,3.2128,3.2128,3.2144,3.2151,3.2153,3.215,3.2159,3.2161,3.2167,3.2169,3.217,3.217,3.2169,3.213,3.2173,3.2172,3.2172,3.2095,3.2093,3.2091,0,0,0,0,0,0,3.2133,3.2132,3.2127,3.2132,3.2132,3.215,3.2146,3.2149,3.2148,3.2161,3.2164,3.2161,3.2171,3.217,3.215,3.213,3.2172,3.2171,3.2096,3.2094,3.2092,3.205,0,0,0,0,0,0,3.2133,3.2132,3.212,3.2132,3.2132,3.211,3.2144,3.2149,3.2146,3.215,3.2157,3.2159,3.2172,3.2152,3.2149,3.2129,3.217,3.2098,3.2095,3.2093,3.2054,3.2047,3.2042,0,0,0,0,0,3.2133,3.2106,3.2119,3.2118,3.2117,3.2108,3.2108,3.2126,3.2145,3.2132,3.2141,3.2159,3.2133,3.2149,3.2147,3.2126,3.2099,3.2096,3.2093,3.2056,3.2048,3.2042,0,0,0,0,0,0,3.2088,3.2108,3.2122,3.2098,3.2102,3.2115,3.21,3.2117,3.2114,3.2117,3.2138,3.2139,3.2116,3.2119,3.2137,3.2094,3.212,3.2116,3.2093,3.2085,3.2079,3.2078,3.2169,0,0,0,0,0,3.2076,3.2069,3.2086,3.2063,3.2064,3.2082,3.2078,3.2092,3.2096,3.2097,3.2104,3.2105,3.2097,3.2092,3.2085,3.2055,3.2057,3.204,3.2034,3.2029,3.2025,3.201,3.2002,3.2081,3.2081,3.2081,0,0,3.2049,3.2059,3.2053,3.2054,3.2058,3.2049,3.2082,3.2071,3.2064,3.2094,3.2076,3.2082,3.2084,3.206,3.2049,3.2062,3.2004,3.2025,3.2021,3.2019,3.2006,3.1998,3.1991,3.2079,3.2079,3.2079,0,0,3.1996,3.2003,3.1986,3.199,3.1997,3.201,3.2006,3.2017,3.2023,3.2006,3.2029,3.202,3.2007,3.2008,3.2007,3.1957,3.1974,3.1955,3.1922,3.1907,3.1901,3.1896,3.1878,3.1871,3.1951,3.1951,3.1951,0,3.1962,3.195,3.1973,3.1961,3.1961,3.1992,3.1973,3.1976,3.1979,3.1978,3.1993,3.1978,3.1982,3.1958,3.1946,3.1945,3.194,3.1953,3.1901,3.1895,3.1891,3.1874,3.1867,3.1948,3.1949,3.1949,3.1949,0,3.1908,3.19,3.1884,3.189,3.1888,3.1872,3.1892,3.1887,3.1902,3.1913,3.1895,3.1902,3.1898,3.1893,3.1906,3.1872,3.188,3.1897,3.1923,3.188,3.1865,3.1859,3.1945,3.1946,3.1946,3.1947,0,0,3.1824,3.1845,3.1839,3.1843,3.1854,3.1847,3.1834,3.1832,3.1828,3.183,3.1818,3.1807,3.1825,3.1824,3.1837,3.1824,3.1785,3.1844,3.1844,3.1832,3.1747,3.1733,3.1725,3.1797,3.1796,3.1795,3.1747,0,3.1773,3.1753,3.1774,3.1748,3.1741,3.1771,3.1759,3.1764,3.1774,3.1768,3.1779,3.1771,3.1794,3.1794,3.1783,3.1792,3.1768,3.1796,3.1785,3.1784,3.1782,3.1717,3.1702,3.1656,3.1741,3.174,3.1739,0,3.1711,3.1713,3.1687,3.1702,3.17,3.1689,3.169,3.1685,3.1691,3.17,3.17,3.1718,3.1704,3.1731,3.1712,3.1731,3.1728,3.1732,3.1731,3.1729,3.1758,3.1713,3.1642,3.1635,3.173,3.1731,3.1731,0,3.1652,3.1649,3.1633,3.1635,3.1652,3.1644,3.165,3.1658,3.1657,3.1658,3.1657,3.1655,3.1654,3.1651,3.1668,3.1686,3.1647,3.1675,3.1653,3.1652,3.1642,3.1642,3.1568,3.1641,3.1641,3.1641,3.1642,0,3.1593,3.1576,3.1607,3.1597,3.1579,3.1604,3.1585,3.1594,3.1602,3.1593,3.1619,3.161,3.1634,3.1627,3.164,3.1623,3.1622,3.1627,3.1631,3.1625,3.1624,3.1622,3.1625,3.164,3.164,3.164,3.1641,0,3.1523,3.1544,3.1529,3.1548,3.1552,3.1538,3.1553,3.1544,3.1557,3.1546,3.1545,3.1564,3.1558,3.1576,3.1572,3.1581,3.1555,3.1564,3.1554,3.1556,3.1533,3.1534,3.1454,3.1444,3.1524,3.1524,3.1523,0,3.1484,3.1472,3.149,3.1487,3.1493,3.1488,3.1488,3.1512,3.151,3.1518,3.1508,3.1505,3.1503,3.1492,3.1505,3.1502,3.1511,3.1483,3.151,3.1505,3.151,3.151,3.1509,3.1477,3.1476,3.1475,3.1474,0,3.1411,3.1422,3.1422,3.1425,3.1424,3.1427,3.1431,3.1427,3.1454,3.145,3.1446,3.1445,3.1443,3.1439,3.144,3.1445,3.1463,3.1466,3.1461,3.1453,3.1448,3.145,3.1537,3.1467,3.1468,3.1468,3.1469,3.1469,3.1355,3.1346,3.1358,3.1357,3.1363,3.1368,3.1361,3.1374,3.1372,3.1373,3.1387,3.138,3.1388,3.1391,3.1395,3.1389,3.1401,3.1393,3.1391,3.1389,3.1385,3.145,3.1389,3.1389,3.1389,3.139,3.139,0,3.1283,3.1293,3.1292,3.1299,3.1298,3.1319,3.1325,3.1322,3.1317,3.1323,3.1323,3.1318,3.1315,3.1329,3.1327,3.132,3.1328,3.1319,3.1319,3.132,3.1374,3.1378,3.1312,3.1312,3.1312,3.1312,3.1312,3.1312,3.1246,3.1232,3.1245,3.1236,3.1245,3.124,3.1242,3.1246,3.1252,3.1246,3.1245,3.1255,3.1265,3.1265,3.1263,3.1267,3.1265,3.1252,3.1258,3.1308,3.1316,3.1323,3.1327,3.1251,3.1251,3.1205,3.1205,3.1204]}]]